Location: Azul
(36.7830°S, 59.8500°W)
Time: 10:33:12
(UTC-03:00)

BEESAT 2 - Visible Passes

Search period start: 22 October 2021 00:00
Search period end: 01 November 2021 00:00
Orbit: 497 x 519 km, 64.9° (Epoch: 22 October)

Date Brightness Start Highest point End Pass type
(mag) Time Alt. Az. Time Alt. Az. Time Alt. Az.
26 Oct ? 21:38:06 37° SSE 21:38:06 37° SSE 21:40:33 10° SSE visible
27 Oct ? 21:14:35 10° NNW 21:18:25 77° WSW 21:22:18 10° SSE visible
28 Oct ? 20:56:19 10° NNW 21:00:08 81° WSW 21:04:01 10° SSE visible
29 Oct ? 05:14:55 10° S 05:18:13 25° SE 05:21:29 10° ENE visible
29 Oct ? 20:38:02 10° NNW 20:41:52 85° SW 20:45:44 10° SSE visible
30 Oct ? 04:56:40 10° S 04:59:55 25° SE 05:03:09 10° ENE visible
30 Oct ? 20:19:45 10° NNW 20:23:35 88° SW 20:27:27 10° SSE visible
31 Oct ? 04:38:25 10° S 04:41:37 24° SE 04:44:48 10° ENE visible
31 Oct ? 20:01:28 10° NNW 20:05:17 88° ENE 20:09:10 10° SSE visible
